To NAV CANADA Home Page Login to a new session Search on AWWS site Feedback and Comments Disclaimer Vers la page française équivalente Tips FAQ What's new on the site To the Forecasts and Observations / NOTAM section To "File a Flight Plan" website Publications and other links Update of the User's profile FIC Telephone Numbers My Weather Data Folder Route Weather Data Regional Weather Data Local Weather Data To the Forecasts and Observations / NOTAM section
Request Generated 03/23/2017 at 00:15:29 UTC . Weather information available at that time is displayed.

METAR/TAF

NAIN/NL    

LWIS CYDP 230000Z AUTO 29025G31KT M17/M23 A2977=
METAR CYDP 222300Z 29022G29KT 15SM VCSH FEW027 BKN200 M17/M23 A2975
RMK SC2CI5 LAST STAFFED OB/ NEXT 230800 SLP076=
METAR CYDP 222200Z 28020G32KT 15SM BKN027 BKN200 M17/M23 A2971 RMK
SC5CI2 SLP063=

*** REMARK        : Forecast period has ended; this was the last TAF issued
*** REMARQUE : La période de prévision est échue; ceci était le dernier TAF qui a été émis
TAF CYDP 221938Z 2220/2223 29025G35KT P6SM FEW040 SCT200
BECMG 2221/2223 27015G25KT
RMK NXT FCST WILL BE ISSUED AT 230945Z=
Your time UTC time
Weather data provided by Environment Canada and NAV CANADA